1511553600.81,45761,9.88,73692.3,-2.79,-13.65,-9.67,0,*64
1511553602.03,45762,9.88,73692.0,-2.79,-13.51,-9.67,0,*60
1511553603.25,45763,9.88,73692.0,-2.81,-13.47,-9.71,0,*66
1511553604.5,45764,9.88,73692.8,-2.79,-13.37,-9.61,0,*60
1511553605.76,45765,9.94,73694.8,-2.79,-13.37,-9.61,0,*61
1511553606.99,45766,9.88,73694.8,-2.79,-13.23,-9.53,0,*66
1511553608.23,45767,9.88,73694.5,-2.79,-13.23,-9.53,0,*67
1511553609.46,45768,9.88,73694.5,-2.79,-13.23,-9.61,0,*69
1511553610.68,45769,9.88,73692.8,-2.79,-13.15,-9.61,0,*6D
1511553611.91,45770,9.88,73692.0,-2.81,-13.19,-9.67,0,*68
1511553613.14,45771,9.88,73694.5,-2.79,-12.97,-9.61,0,*6F
1511553614.38,45772,9.94,73694.8,-2.79,-12.93,-9.45,0,*6E
1511553615.63,45773,9.88,73694.8,-2.79,-12.83,-9.45,0,*6E
1511553616.9,45774,9.88,73694.5,-2.81,-12.83,-9.41,0,*6A
1511553618.17,45775,9.88,73692.3,-2.81,-12.83,-9.49,0,*63
1511553619.43,45776,9.88,73692.0,-2.79,-12.53,-9.37,0,*63
1511553620.69,45777,9.88,73692.3,-2.79,-12.53,-9.37,0,*62
1511553621.91,45778,9.88,73692.0,-2.79,-12.43,-9.45,0,*69
1511553623.14,45779,9.88,73692.3,-2.79,-12.43,-9.53,0,*6F
1511553624.39,45780,9.88,73692.3,-2.81,-12.47,-9.57,0,*6E
1511553625.62,45781,9.88,73696.0,-2.79,-12.29,-9.53,0,*64
1511553626.86,45782,9.88,73694.3,-2.79,-12.25,-9.45,0,*6C
1511553628.12,45783,9.88,73696.3,-2.79,-12.15,-9.45,0,*6E
1511553629.37,45784,9.88,73692.8,-2.79,-12.15,-9.61,0,*6F
1511553630.62,45785,9.88,73692.0,-2.79,-12.15,-9.61,0,*6E
1511553631.88,45786,9.88,73690.0,-2.77,-12.07,-9.67,0,*66
1511553633.17,45787,9.88,73690.8,-2.75,-11.93,-9.61,0,*6D
1511553634.42,45788,9.88,73688.8,-2.77,-11.97,-9.75,0,*61
1511553635.67,45789,9.88,73694.3,-2.77,-11.97,-9.79,0,*6C
1511553636.96,45790,9.88,73692.8,-2.75,-11.93,-9.83,0,*67
1511553638.22,45791,9.88,73692.0,-2.77,-11.93,-9.93,0,*65
1511553639.5,45792,9.88,73692.5,-2.75,-11.77,-9.83,0,*6F
1511553640.76,45793,9.88,73694.3,-2.75,-11.67,-9.89,0,*65
1511553642.01,45794,9.88,73688.0,-2.77,-11.81,-9.93,0,*63
1511553643.28,45795,9.88,73690.5,-2.75,-11.67,-10.01,0,*5B
1511553644.54,45796,9.88,73692.8,-2.77,-11.67,-10.05,0,*5E
1511553645.8,45797,9.88,73690.0,-2.77,-11.67,-10.05,0,*5F
1511553647.06,45798,9.88,73690.0,-2.77,-11.55,-10.05,0,*51
1511553648.32,45799,9.88,73690.0,-2.75,-11.51,-10.01,0,*52
1511553649.59,45800,9.88,73688.8,-2.75,-11.51,-10.15,0,*58
1511553650.86,45801,9.94,73694.0,-2.77,-11.55,-10.27,0,*5E
1511553652.12,45802,9.88,73688.8,-2.75,-11.29,-10.09,0,*58
1511553653.39,45803,9.88,73688.8,-2.75,-11.37,-10.15,0,*5B
1511553654.63,45804,9.88,73690.3,-2.77,-11.41,-10.31,0,*59
1511553655.9,45805,9.88,73686.8,-2.75,-11.29,-10.27,0,*53
1511553657.2,45806,9.88,73688.3,-2.75,-11.29,-10.41,0,*50
1511553658.44,45807,9.88,73688.5,-2.77,-11.45,-10.49,0,*51
1511553659.69,45808,9.88,73690.0,-2.75,-11.41,-10.57,0,*57
1511553660.98,45809,9.94,73688.8,-2.75,-11.37,-10.67,0,*54
1511553662.25,45810,9.88,73686.5,-2.75,-11.41,-10.67,0,*5D
1511553663.52,45811,9.88,73688.5,-2.75,-11.41,-10.71,0,*5B
1511553664.77,45812,9.88,73690.8,-2.75,-11.51,-10.85,0,*52
1511553666.04,45813,9.88,73684.5,-2.75,-11.55,-10.97,0,*54
1511553667.31,45814,9.88,73690.5,-2.75,-11.55,-10.97,0,*53
1511553668.57,45815,9.88,73692.0,-2.75,-11.55,-11.19,0,*55
1511553669.83,45816,9.88,73688.8,-2.75,-11.67,-11.19,0,*57
1511553671.07,45817,9.88,73686.0,-2.73,-11.55,-11.19,0,*51
1511553672.33,45818,9.88,73692.3,-2.73,-11.67,-11.29,0,*5C
1511553673.62,45819,9.88,73688.3,-2.75,-11.63,-11.29,0,*5F
1511553674.9,45820,9.88,73692.8,-2.75,-11.77,-11.51,0,*5F
1511553676.19,45821,9.88,73690.8,-2.75,-11.77,-11.51,0,*5E
1511553677.44,45822,9.88,73688.8,-2.73,-11.67,-11.51,0,*5A
1511553678.73,45823,9.88,73686.5,-2.75,-11.77,-11.55,0,*58
1511553679.99,45824,9.88,73688.3,-2.73,-11.81,-11.63,0,*55
1511553681.25,45825,9.88,73688.0,-2.73,-11.81,-11.63,0,*54
1511553682.51,45826,9.88,73690.8,-2.73,-11.93,-11.81,0,*58
1511553683.77,45827,9.88,73690.5,-2.73,-11.89,-11.81,0,*52
1511553685.02,45828,9.88,73686.5,-2.73,-11.89,-11.81,0,*5D
1511553686.27,45829,9.88,73688.0,-2.73,-11.89,-11.81,0,*5C
1511553687.54,45830,9.88,73688.8,-2.73,-11.93,-11.93,0,*5C
1511553688.78,45831,9.88,73690.5,-2.73,-11.93,-12.03,0,*57
1511553690.01,45832,9.88,73694.0,-2.73,-12.03,-12.07,0,*5A
1511553691.25,45833,9.88,73690.8,-2.73,-12.07,-12.21,0,*5B
1511553692.49,45834,9.88,73692.3,-2.69,-12.03,-12.15,0,*54
1511553693.72,45835,9.88,73688.3,-2.69,-12.03,-12.15,0,*55
1511553694.94,45836,9.88,73684.5,-2.73,-12.21,-12.25,0,*5E
1511553696.18,45837,9.88,73690.8,-2.73,-12.21,-12.35,0,*5E
1511553697.42,45838,9.88,73690.5,-2.73,-12.21,-12.35,0,*51
1511553698.66,45839,9.88,73692.0,-2.69,-12.15,-12.29,0,*51
1511553699.9,45840,9.88,73690.3,-2.73,-12.35,-12.47,0,*5E
1511553701.11,45841,9.88,73690.5,-2.73,-12.39,-12.47,0,*53
1511553702.32,45842,9.88,73694.3,-2.69,-12.43,-12.43,0,*52
1511553703.57,45843,9.88,73696.0,-2.73,-12.61,-12.65,0,*5C
1511553704.83,45844,9.88,73694.8,-2.69,-12.71,-12.61,0,*55
1511553706.1,45845,9.88,73692.5,-2.73,-12.75,-12.75,0,*5E
1511553707.35,45846,9.88,73694.8,-2.73,-12.71,-12.61,0,*5C
1511553708.58,45847,9.88,73692.3,-2.73,-12.89,-12.65,0,*5E
1511553709.84,45848,9.88,73694.0,-2.73,-13.01,-12.65,0,*50
1511553711.06,45849,9.88,73692.0,-2.73,-13.07,-12.65,0,*57
1511553712.3,45850,9.88,73694.0,-2.73,-13.11,-12.75,0,*59
1511553713.53,45851,9.88,73696.0,-2.73,-13.11,-12.75,0,*58
1511553714.78,45852,9.88,73696.0,-2.69,-13.19,-12.61,0,*5D
1511553716.01,45853,9.88,73696.0,-2.73,-13.23,-12.65,0,*5A
1511553717.25,45854,9.88,73696.0,-2.69,-13.19,-12.57,0,*5E
1511553718.51,45855,9.88,73698.3,-2.69,-13.33,-12.61,0,*52
1511553719.77,45856,9.88,73696.3,-2.73,-13.37,-12.61,0,*5E
1511553721.01,45857,9.88,73698.0,-2.69,-13.47,-12.71,0,*52
1511553722.27,45858,9.88,73696.0,-2.73,-13.61,-12.61,0,*53
1511553723.53,45859,9.88,73694.8,-2.73,-13.61,-12.61,0,*52
1511553724.78,45860,9.88,73698.8,-2.73,-13.79,-12.61,0,*51
1511553726.04,45861,9.88,73698.0,-2.73,-13.79,-12.61,0,*50
1511553727.3,45862,9.88,73696.8,-2.73,-13.79,-12.53,0,*52
1511553728.54,45863,9.88,73696.3,-2.69,-13.73,-12.35,0,*52
1511553729.78,45864,9.88,73698.0,-2.73,-13.87,-12.39,0,*59
1511553730.99,45865,9.88,73700.3,-2.69,-13.93,-12.39,0,*56
1511553732.2,45866,9.88,73696.0,-2.73,-13.93,-12.39,0,*5E
1511553733.43,45867,9.88,73698.8,-2.73,-13.93,-12.35,0,*53
1511553734.64,45868,9.88,73698.3,-2.73,-13.93,-12.39,0,*50
1511553735.84,45869,9.88,73692.0,-2.73,-13.93,-12.25,0,*5C
1511553737.08,45870,9.88,73690.3,-2.73,-14.05,-12.25,0,*5C
1511553738.32,45871,9.88,73692.8,-2.73,-13.97,-12.25,0,*51
1511553739.59,45872,9.88,73690.0,-2.73,-13.97,-12.11,0,*55
1511553740.84,45873,9.88,73694.5,-2.69,-14.01,-12.03,0,*54
1511553742.08,45874,9.88,73696.5,-2.73,-13.97,-12.03,0,*50
1511553743.35,45875,9.88,73692.0,-2.73,-14.01,-11.89,0,*58
1511553744.61,45876,9.88,73692.0,-2.73,-13.97,-11.89,0,*53
1511553745.89,45877,9.94,73698.3,-2.69,-13.97,-11.73,0,*5C
1511553747.15,45878,9.88,73694.0,-2.69,-13.87,-11.59,0,*5A
1511553748.38,45879,9.88,73694.0,-2.73,-13.93,-11.67,0,*58
1511553749.62,45880,9.88,73692.5,-2.73,-13.93,-11.63,0,*5A
1511553750.85,45881,9.88,73692.8,-2.73,-13.93,-11.51,0,*5A
1511553752.08,45882,9.88,73694.3,-2.73,-13.87,-11.41,0,*5D
1511553753.34,45883,9.88,73696.5,-2.73,-13.87,-11.37,0,*5D
1511553754.55,45884,9.88,73696.0,-2.69,-13.73,-11.19,0,*56
1511553755.76,45885,9.88,73688.0,-2.73,-13.73,-11.23,0,*55
1511553756.96,45886,9.88,73694.8,-2.73,-13.65,-11.19,0,*58
1511553758.18,45887,9.88,73690.5,-2.69,-13.55,-11.01,0,*58
1511553759.39,45888,9.88,73692.5,-2.69,-13.47,-10.93,0,*5E
1511553760.63,45889,9.88,73688.5,-2.69,-13.33,-10.89,0,*57
1511553761.84,45890,9.88,73694.0,-2.73,-13.51,-10.93,0,*5B
1511553763.06,45891,9.88,73686.8,-2.69,-13.43,-11.01,0,*58
1511553764.28,45892,9.88,73688.5,-2.69,-13.43,-10.93,0,*51
1511553765.49,45893,9.88,73690.3,-2.69,-13.43,-10.93,0,*50
1511553766.73,45894,9.88,73688.5,-2.69,-13.33,-10.93,0,*50
1511553767.97,45895,9.88,73692.0,-2.69,-13.19,-10.79,0,*5D
1511553769.22,45896,9.88,73694.8,-2.69,-13.19,-10.79,0,*5E
1511553770.43,45897,9.88,73690.5,-2.69,-13.15,-10.89,0,*5C
1511553771.64,45898,9.88,73688.5,-2.69,-13.15,-10.89,0,*53
1511553772.85,45899,9.88,73690.8,-2.69,-13.15,-10.89,0,*52
1511553774.06,45900,9.88,73692.0,-2.69,-13.15,-10.89,0,*53
1511553775.3,45901,9.88,73688.3,-2.69,-13.07,-10.79,0,*5E
1511553776.51,45902,9.88,73692.8,-2.69,-13.07,-10.89,0,*52
1511553777.76,45903,9.88,73692.8,-2.69,-13.01,-10.93,0,*5E
1511553778.97,45904,9.88,73692.3,-2.69,-13.07,-11.01,0,*55
1511553780.26,45905,9.88,73694.3,-2.67,-13.01,-11.07,0,*5A
1511553781.48,45906,9.88,73694.3,-2.69,-12.97,-11.01,0,*5F
1511553782.69,45907,9.88,73696.8,-2.69,-12.89,-11.01,0,*51
1511553783.9,45908,9.88,73694.8,-2.69,-12.89,-11.01,0,*5E
1511553785.15,45909,9.88,73694.0,-2.69,-12.89,-11.07,0,*59
1511553786.41,45910,9.88,73690.8,-2.67,-12.89,-11.07,0,*5F
1511553787.64,45911,9.88,73694.3,-2.65,-12.79,-11.15,0,*50
1511553788.87,45912,9.88,73688.3,-2.65,-12.79,-11.19,0,*5F
1511553790.12,45913,9.88,73684.8,-2.67,-12.89,-11.33,0,*5B
1511553791.38,45914,9.88,73690.3,-2.67,-12.97,-11.37,0,*57
1511553792.64,45915,9.88,73688.5,-2.67,-12.89,-11.37,0,*59
1511553793.87,45916,9.88,73690.0,-2.67,-12.97,-11.45,0,*50
1511553795.13,45917,9.88,73690.0,-2.67,-12.97,-11.51,0,*54
1511553796.39,45918,9.88,73686.3,-2.67,-12.97,-11.51,0,*5B
1511553797.62,45919,9.88,73690.8,-2.65,-12.83,-11.45,0,*58
1511553798.87,45920,9.88,73690.3,-2.67,-12.89,-11.51,0,*5F
1511553800.13,45921,9.88,73690.5,-2.67,-12.89,-11.51,0,*5E
1511553801.39,45922,9.88,73692.3,-2.67,-12.89,-11.51,0,*5D
1511553802.65,45923,9.88,73692.8,-2.67,-12.97,-11.51,0,*53
1511553803.91,45924,9.88,73694.0,-2.67,-12.97,-11.59,0,*5C
1511553805.17,45925,9.88,73692.0,-2.67,-13.07,-11.63,0,*5C
1511553806.43,45926,9.88,73694.0,-2.67,-13.07,-11.73,0,*5E
1511553807.68,45927,9.88,73692.8,-2.67,-13.07,-11.73,0,*5F
1511553808.94,45928,9.88,73690.8,-2.67,-13.07,-11.73,0,*50
1511553810.2,45929,9.88,73692.0,-2.67,-13.07,-11.77,0,*55
1511553811.45,45930,9.88,73692.3,-2.67,-13.07,-11.77,0,*5D
1511553812.7,45931,9.88,73692.3,-2.67,-13.15,-11.77,0,*5F
1511553813.93,45932,9.88,73694.5,-2.65,-13.11,-11.73,0,*5E
1511553815.19,45933,9.88,73696.8,-2.67,-13.15,-11.73,0,*59
1511553816.45,45934,9.88,73694.8,-2.67,-13.19,-11.73,0,*52
1511553817.7,45935,9.88,73692.0,-2.67,-13.15,-11.73,0,*5F
1511553818.93,45936,9.88,73694.3,-2.65,-13.15,-11.73,0,*5E
1511553820.19,45937,9.88,73692.8,-2.67,-13.19,-11.85,0,*58
1511553821.43,45938,9.88,73692.3,-2.65,-13.23,-11.73,0,*55
1511553822.71,45939,9.88,73692.8,-2.67,-13.33,-11.73,0,*57
1511553823.99,45940,9.88,73688.3,-2.67,-13.33,-11.73,0,*59
1511553825.27,45941,9.88,73692.8,-2.67,-13.33,-11.73,0,*58
1511553826.53,45942,9.88,73692.3,-2.67,-13.43,-11.77,0,*58
1511553827.79,45943,9.88,73690.5,-2.67,-13.43,-11.73,0,*5D
1511553829.05,45944,9.88,73694.8,-2.67,-13.43,-11.63,0,*5B
1511553830.31,45945,9.88,73694.0,-2.67,-13.43,-11.59,0,*53
1511553831.57,45946,9.88,73694.0,-2.67,-13.47,-11.63,0,*5D
1511553832.83,45947,9.88,73692.8,-2.67,-13.55,-11.63,0,*5F
1511553834.07,45948,9.88,73694.5,-2.69,-13.47,-11.63,0,*5D
1511553835.31,45949,9.88,73692.3,-2.69,-13.47,-11.59,0,*55
1511553836.55,45950,9.88,73692.8,-2.69,-13.55,-11.51,0,*56
1511553837.78,45951,9.88,73690.8,-2.69,-13.43,-11.51,0,*50
1511553839.02,45952,9.88,73688.5,-2.69,-13.47,-11.37,0,*57
1511553840.27,45953,9.88,73690.5,-2.67,-13.47,-11.37,0,*58
1511553841.52,45954,9.88,73692.5,-2.67,-13.43,-11.33,0,*5F
1511553842.76,45955,9.88,73690.5,-2.67,-13.43,-11.23,0,*5F
1511553843.99,45956,9.88,73692.8,-2.67,-13.43,-11.19,0,*55
1511553845.22,45957,9.88,73688.8,-2.67,-13.47,-11.15,0,*5C
1511553846.48,45958,9.88,73690.5,-2.67,-13.55,-11.07,0,*53
1511553847.69,45959,9.88,73694.5,-2.65,-13.43,-11.01,0,*51
1511553848.93,45960,9.88,73694.0,-2.67,-13.43,-11.01,0,*59
1511553850.16,45961,9.88,73688.0,-2.67,-13.43,-10.93,0,*52
1511553851.4,45962,9.88,73692.8,-2.67,-13.43,-10.93,0,*51
1511553852.66,45963,9.88,73694.8,-2.67,-13.43,-10.79,0,*54
1511553853.92,45964,9.88,73690.5,-2.67,-13.43,-10.67,0,*5C
1511553855.19,45965,9.88,73692.0,-2.67,-13.43,-10.67,0,*5D
1511553856.45,45966,9.88,73692.8,-2.67,-13.33,-10.53,0,*5E
1511553857.66,45967,9.88,73692.3,-2.65,-13.23,-10.49,0,*57
1511553858.92,45968,9.88,73694.3,-2.67,-13.33,-10.49,0,*5B
1511553860.19,45969,9.88,73688.3,-2.67,-13.29,-10.35,0,*5A
1511553861.45,45970,9.88,73688.0,-2.67,-13.29,-10.23,0,*55
1511553862.67,45971,9.88,73692.8,-2.69,-13.19,-10.09,0,*51
1511553863.89,45972,9.88,73690.3,-2.67,-13.15,-9.97,0,*6F
1511553865.12,45973,9.88,73692.3,-2.67,-13.15,-9.97,0,*6E
1511553866.37,45974,9.88,73694.5,-2.67,-13.15,-9.83,0,*6C
1511553867.59,45975,9.88,73694.8,-2.67,-13.07,-9.79,0,*6B
1511553868.85,45976,9.88,73694.5,-2.69,-13.01,-9.57,0,*6C
1511553870.13,45977,9.88,73696.8,-2.67,-13.01,-9.45,0,*60
1511553871.39,45978,9.88,73696.8,-2.67,-12.97,-9.45,0,*61
1511553872.59,45979,9.88,73696.8,-2.69,-12.89,-9.23,0,*61
1511553873.82,45980,9.88,73690.3,-2.69,-12.89,-9.15,0,*62
1511553875.06,45981,9.88,73694.3,-2.69,-12.75,-9.01,0,*65
1511553876.29,45982,9.88,73692.3,-2.69,-12.61,-8.97,0,*6D
1511553877.53,45983,9.88,73692.8,-2.69,-12.71,-8.85,0,*6E
1511553878.75,45984,9.88,73694.0,-2.69,-12.61,-8.75,0,*67
1511553879.98,45985,9.88,73694.3,-2.69,-12.57,-8.59,0,*6D
1511553881.18,45986,9.88,73690.8,-2.69,-12.47,-8.55,0,*63
1511553882.43,45987,9.88,73690.8,-2.67,-12.35,-8.41,0,*6C
1511553883.64,45988,9.88,73686.5,-2.69,-12.43,-8.41,0,*6C
1511553884.86,45989,9.88,73690.3,-2.69,-12.35,-8.33,0,*69
1511553886.1,45990,9.88,73694.3,-2.67,-12.21,-8.21,0,*69
1511553887.35,45991,9.88,73694.8,-2.69,-12.21,-8.07,0,*62
1511553888.59,45992,9.88,73694.0,-2.69,-12.21,-8.07,0,*61
1511553889.86,45993,9.88,73690.8,-2.69,-12.07,-8.07,0,*64
1511553891.13,45994,9.88,73688.8,-2.67,-12.07,-7.95,0,*69
1511553892.36,45995,9.88,73694.0,-2.67,-12.03,-7.83,0,*6B
1511553893.62,45996,9.88,73688.8,-2.67,-12.03,-7.77,0,*63
1511553894.87,45997,9.88,73690.3,-2.65,-11.81,-7.65,0,*6A
1511553896.12,45998,9.88,73690.8,-2.65,-11.81,-7.65,0,*65
1511553897.39,45999,9.88,73690.8,-2.67,-11.73,-7.65,0,*6B
1511553898.67,46000,9.88,73688.3,-2.67,-11.73,-7.61,0,*65
1511553899.95,46001,9.88,73688.5,-2.67,-11.63,-7.65,0,*61
1511553901.21,46002,9.88,73690.0,-2.65,-11.67,-7.57,0,*65
1511553902.49,46003,9.88,73690.0,-2.67,-11.63,-7.61,0,*67
1511553903.74,46004,9.88,73690.8,-2.67,-11.59,-7.53,0,*68
1511553904.99,46005,9.88,73690.0,-2.67,-11.51,-7.49,0,*6A
1511553906.24,46006,9.88,73690.5,-2.67,-11.51,-7.53,0,*62
1511553907.44,46007,9.88,73690.3,-2.65,-11.41,-7.49,0,*6B
1511553908.69,46008,9.88,73688.8,-2.67,-11.37,-7.49,0,*67
1511553909.97,46009,9.88,73688.8,-2.67,-11.33,-7.39,0,*65
1511553911.22,46010,9.88,73690.3,-2.67,-11.19,-7.39,0,*65
1511553912.47,46011,9.88,73690.0,-2.67,-11.15,-7.27,0,*67
1511553913.71,46012,9.88,73690.5,-2.65,-10.97,-7.31,0,*6A
1511553914.93,46013,9.88,73688.3,-2.65,-10.89,-7.31,0,*64
1511553916.19,46014,9.88,73690.3,-2.67,-10.93,-7.27,0,*6D
1511553917.44,46015,9.88,73688.8,-2.67,-10.89,-7.35,0,*64
1511553918.67,46016,9.88,73690.0,-2.65,-10.75,-7.23,0,*61
1511553919.92,46017,9.88,73690.5,-2.65,-10.75,-7.31,0,*63
1511553921.18,46018,9.88,73690.5,-2.67,-10.75,-7.23,0,*6D
1511553922.38,46019,9.88,73690.8,-2.65,-10.49,-7.19,0,*68
1511553923.58,46020,9.88,73692.3,-2.65,-10.49,-7.19,0,*62
1511553924.79,46021,9.88,73694.3,-2.65,-10.35,-7.11,0,*60
1511553926.0,46022,9.88,73694.5,-2.65,-10.27,-7.11,0,*60
1511553927.2,46023,9.88,73694.3,-2.65,-10.31,-7.11,0,*66
1511553928.43,46024,9.88,73694.3,-2.67,-10.23,-7.23,0,*61
1511553929.64,46025,9.88,73692.8,-2.65,-10.01,-7.11,0,*63
1511553930.84,46026,9.88,73690.3,-2.65,-10.01,-7.11,0,*60
1511553932.04,46027,9.88,73692.3,-2.65,-10.01,-7.19,0,*69
1511553933.23,46028,9.88,73694.5,-2.65,-9.93,-7.11,0,*5D
1511553934.45,46029,9.88,73688.0,-2.65,-9.79,-7.05,0,*5D
1511553935.64,46030,9.88,73688.3,-2.65,-9.75,-7.19,0,*54
1511553936.84,46031,9.88,73694.0,-2.65,-9.75,-7.19,0,*55
1511553938.04,46032,9.88,73694.3,-2.65,-9.75,-7.23,0,*5F
1511553939.26,46033,9.88,73694.0,-2.65,-9.67,-7.31,0,*5E
1511553940.51,46034,9.88,73696.0,-2.63,-9.75,-7.35,0,*58
1511553941.73,46035,9.88,73694.3,-2.65,-9.67,-7.31,0,*58
1511553943.0,46036,9.88,73694.5,-2.63,-9.49,-7.35,0,*55
1511553944.25,46037,9.88,73692.8,-2.65,-9.53,-7.35,0,*59
1511553945.52,46038,9.88,73690.0,-2.63,-9.49,-7.35,0,*5B
1511553946.8,46039,9.88,73692.0,-2.63,-9.37,-7.35,0,*53
1511553948.05,46040,9.88,73696.3,-2.63,-9.31,-7.35,0,*5B
1511553949.27,46041,9.88,73694.0,-2.65,-9.23,-7.35,0,*5F
1511553950.5,46042,9.88,73692.8,-2.65,-9.19,-7.43,0,*54
1511553951.69,46043,9.88,73694.3,-2.65,-9.19,-7.49,0,*5F
1511553952.92,46044,9.88,73696.8,-2.63,-9.19,-7.49,0,*5E
1511553954.17,46045,9.88,73694.8,-2.63,-9.05,-7.57,0,*5D
1511553955.43,46046,9.88,73694.3,-2.63,-8.97,-7.61,0,*51
1511553956.68,46047,9.88,73692.5,-2.63,-8.97,-7.61,0,*50
1511553957.93,46048,9.88,73692.3,-2.63,-8.97,-7.73,0,*5C
1511553959.18,46049,9.88,73698.3,-2.63,-8.97,-7.65,0,*5A
1511553960.41,46050,9.88,73694.0,-2.63,-8.85,-7.87,0,*5D
1511553961.67,46051,9.88,73696.8,-2.63,-8.93,-7.91,0,*5C
1511553962.92,46052,9.88,73698.8,-2.63,-8.85,-7.91,0,*58
1511553964.16,46053,9.88,73696.8,-2.61,-8.81,-7.95,0,*5B
1511553965.41,46054,9.88,73696.3,-2.63,-8.85,-8.03,0,*5A
1511553966.67,46055,9.88,73694.0,-2.63,-8.71,-8.11,0,*53
1511553967.92,46056,9.88,73700.3,-2.63,-8.67,-8.11,0,*57
1511553969.11,46057,9.88,73698.8,-2.61,-8.55,-8.17,0,*53
1511553970.33,46058,9.88,73692.8,-2.63,-8.59,-8.25,0,*53
1511553971.56,46059,9.88,73694.3,-2.63,-8.59,-8.37,0,*51
1511553972.78,46060,9.88,73694.5,-2.63,-8.55,-8.29,0,*58
1511553974.0,46061,9.88,73694.8,-2.61,-8.51,-8.33,0,*54
1511553975.26,46062,9.88,73692.5,-2.63,-8.51,-8.37,0,*51
1511553976.48,46063,9.88,73694.3,-2.63,-8.41,-8.41,0,*50
1511553977.73,46064,9.88,73694.3,-2.63,-8.37,-8.51,0,*57
1511553978.94,46065,9.88,73694.8,-2.63,-8.29,-8.55,0,*5D
1511553980.16,46066,9.88,73692.5,-2.63,-8.25,-8.59,0,*5E
1511553981.35,46067,9.88,73692.3,-2.61,-8.21,-8.63,0,*50
1511553982.54,46068,9.88,73692.8,-2.61,-8.25,-8.75,0,*5C
1511553983.76,46069,9.88,73692.5,-2.61,-8.21,-8.81,0,*52
1511553984.98,46070,9.88,73692.5,-2.63,-8.25,-8.85,0,*58
1511553986.21,46071,9.88,73690.3,-2.61,-8.11,-8.93,0,*5B
1511553987.43,46072,9.88,73692.0,-2.61,-8.11,-8.93,0,*58
1511553988.66,46073,9.88,73690.0,-2.61,-8.07,-9.05,0,*50
1511553989.88,46074,9.88,73692.3,-2.61,-8.07,-9.19,0,*5A
1511553991.13,46075,9.88,73690.5,-2.59,-8.11,-9.19,0,*57
1511553992.34,46076,9.88,73692.5,-2.57,-8.11,-9.23,0,*53
1511553993.56,46077,9.88,73694.0,-2.57,-8.17,-9.49,0,*58
1511553994.83,46078,9.88,73690.5,-2.59,-8.11,-9.57,0,*50
1511553996.08,46079,9.88,73688.8,-2.57,-8.07,-9.53,0,*5C
1511553997.34,46080,9.88,73688.3,-2.59,-8.11,-9.75,0,*57
1511553998.59,46081,9.88,73690.3,-2.59,-8.11,-9.75,0,*56
1511553999.84,46082,9.88,73684.5,-2.59,-8.07,-9.89,0,*51
1511554001.09,46083,9.88,73684.3,-2.59,-8.11,-9.89,0,*57
1511554002.31,46084,9.88,73690.8,-2.57,-8.07,-9.97,0,*56
1511554003.53,46085,9.88,73692.8,-2.57,-8.07,-9.97,0,*57
1511554004.76,46086,9.88,73694.5,-2.57,-8.07,-10.05,0,*67
1511554005.98,46087,9.88,73690.8,-2.57,-8.03,-10.09,0,*6E
1511554007.24,46088,9.88,73692.3,-2.59,-8.11,-10.15,0,*61
1511554008.49,46089,9.88,73688.0,-2.59,-8.11,-10.23,0,*65
1511554009.73,46090,9.88,73692.5,-2.57,-8.07,-10.27,0,*60
1511554010.93,46091,9.88,73690.5,-2.57,-8.17,-10.27,0,*60
1511554012.17,46092,9.88,73688.0,-2.57,-8.17,-10.41,0,*63
1511554013.39,46093,9.88,73694.0,-2.57,-8.03,-10.49,0,*6F
1511554014.62,46094,9.88,73694.3,-2.57,-8.07,-10.49,0,*6C
1511554015.82,46095,9.88,73688.5,-2.57,-8.21,-10.49,0,*69
1511554017.02,46096,9.88,73694.0,-2.57,-8.17,-10.49,0,*6F
1511554018.25,46097,9.88,73688.0,-2.55,-8.17,-10.49,0,*6C
1511554019.48,46098,9.88,73690.8,-2.55,-8.17,-10.57,0,*6C
1511554020.73,46099,9.88,73690.8,-2.55,-8.17,-10.63,0,*6A
1511554021.98,46100,9.88,73692.8,-2.55,-8.25,-10.71,0,*69
1511554023.24,46101,9.88,73692.3,-2.55,-8.25,-10.71,0,*68
1511554024.49,46102,9.88,73692.5,-2.55,-8.29,-10.75,0,*63
1511554025.71,46103,9.88,73696.5,-2.57,-8.29,-10.79,0,*6C
1511554026.93,46104,9.88,73692.5,-2.57,-8.33,-10.79,0,*60
1511554028.14,46105,9.88,73692.5,-2.57,-8.45,-10.93,0,*64
1511554029.37,46106,9.88,73692.5,-2.55,-8.41,-10.97,0,*65
1511554030.58,46107,9.88,73692.0,-2.53,-8.37,-10.97,0,*63
1511554031.78,46108,9.88,73692.3,-2.53,-8.55,-11.01,0,*66
1511554033.04,46109,9.88,73692.0,-2.55,-8.45,-11.07,0,*66
1511554034.3,46110,9.88,73688.5,-2.55,-8.55,-11.07,0,*6F
1511554035.55,46111,9.88,73692.3,-2.55,-8.55,-11.07,0,*6E
1511554036.78,46112,9.88,73692.3,-2.55,-8.55,-11.15,0,*6E
1511554038.01,46113,9.88,73692.3,-2.55,-8.59,-11.19,0,*6F
1511554039.26,46114,9.88,73694.8,-2.55,-8.67,-11.29,0,*66
1511554040.51,46115,9.88,73692.0,-2.55,-8.71,-11.29,0,*60
1511554041.76,46116,9.88,73690.0,-2.55,-8.67,-11.33,0,*6F
1511554043.03,46117,9.88,73686.8,-2.55,-8.81,-11.33,0,*66
1511554044.25,46118,9.88,73690.5,-2.53,-8.71,-11.33,0,*60
1511554045.5,46119,9.88,73692.0,-2.53,-8.81,-11.33,0,*6E
1511554046.73,46120,9.88,73694.8,-2.55,-8.93,-11.45,0,*60
1511554047.99,46121,9.88,73694.0,-2.55,-8.85,-11.59,0,*6B
1511554049.24,46122,9.88,73694.0,-2.55,-8.97,-11.67,0,*66
1511554050.5,46123,9.88,73690.8,-2.55,-9.05,-11.67,0,*6D
1511554051.75,46124,9.88,73690.5,-2.53,-9.11,-11.81,0,*61
1511554052.98,46125,9.88,73694.0,-2.53,-9.23,-11.85,0,*65
1511554054.21,46126,9.88,73692.3,-2.53,-9.19,-11.85,0,*6F
1511554055.44,46127,9.88,73690.5,-2.53,-9.27,-11.97,0,*60
1511554056.72,46128,9.88,73692.0,-2.55,-9.41,-11.97,0,*69
1511554057.97,46129,9.88,73694.5,-2.55,-9.49,-12.03,0,*6E
1511554059.24,46130,9.88,73694.3,-2.55,-9.53,-12.11,0,*6E
1511554060.46,46131,9.88,73690.3,-2.55,-9.67,-12.25,0,*6F
1511554061.69,46132,9.88,73694.3,-2.55,-9.79,-12.25,0,*63
1511554062.91,46133,9.88,73690.0,-2.55,-9.89,-12.25,0,*6D
1511554064.14,46134,9.88,73692.5,-2.55,-10.01,-12.29,0,*5E
1511554065.34,46135,9.88,73692.0,-2.53,-10.05,-12.39,0,*5C
1511554066.55,46136,9.88,73696.0,-2.53,-10.15,-12.39,0,*5E
1511554067.78,46137,9.88,73692.8,-2.55,-10.31,-12.43,0,*52
1511554069.01,46138,9.88,73690.3,-2.55,-10.45,-12.43,0,*5E
1511554070.24,46139,9.88,73694.5,-2.55,-10.49,-12.43,0,*53
1511554071.47,46140,9.88,73694.5,-2.53,-10.71,-12.43,0,*50
1511554072.73,46141,9.88,73694.5,-2.53,-10.71,-12.53,0,*50
1511554073.96,46142,9.88,73694.0,-2.53,-10.89,-12.65,0,*51
1511554075.22,46143,9.88,73694.3,-2.53,-11.07,-12.65,0,*57
1511554076.44,46144,9.88,73694.3,-2.53,-11.19,-12.57,0,*5E
1511554077.7,46145,9.88,73696.8,-2.55,-11.19,-12.57,0,*59
1511554078.93,46146,9.88,73692.3,-2.53,-11.41,-12.65,0,*50
1511554080.19,46147,9.88,73694.0,-2.55,-11.45,-12.65,0,*53
1511554081.44,46148,9.88,73694.3,-2.53,-11.67,-12.57,0,*5B
1511554082.72,46149,9.88,73692.3,-2.55,-11.73,-12.57,0,*59
1511554083.98,46150,9.88,73692.3,-2.53,-11.85,-12.71,0,*5A
1511554085.24,46151,9.88,73694.0,-2.53,-11.97,-12.79,0,*50
1511554086.51,46152,9.88,73694.3,-2.55,-12.03,-12.71,0,*53
1511554087.77,46153,9.88,73694.5,-2.55,-12.03,-12.71,0,*52
1511554089.03,46154,9.88,73692.0,-2.55,-12.25,-12.71,0,*51
1511554090.27,46155,9.88,73692.3,-2.53,-12.25,-12.71,0,*56
1511554091.54,46156,9.88,73692.3,-2.55,-12.29,-12.71,0,*5F
1511554092.79,46157,9.88,73694.0,-2.55,-12.39,-12.65,0,*5A
1511554094.03,46158,9.88,73694.0,-2.53,-12.43,-12.71,0,*5B
1511554095.29,46159,9.88,73690.8,-2.53,-12.53,-12.71,0,*5B
1511554096.55,46160,9.88,73692.8,-2.53,-12.53,-12.65,0,*54
1511554097.81,46161,9.88,73698.5,-2.53,-12.57,-12.57,0,*50
1511554099.09,46162,9.88,73692.8,-2.55,-12.57,-12.71,0,*51
1511554100.35,46163,9.88,73696.3,-2.53,-12.65,-12.65,0,*52
1511554101.6,46164,9.88,73694.3,-2.53,-12.71,-12.65,0,*50
1511554102.86,46165,9.88,73694.5,-2.53,-12.71,-12.57,0,*50
1511554104.11,46166,9.88,73694.0,-2.53,-12.71,-12.65,0,*52
1511554105.39,46167,9.88,73696.0,-2.55,-12.71,-12.57,0,*54
1511554106.67,46168,9.88,73692.8,-2.55,-12.65,-12.53,0,*5A
1511554107.95,46169,9.88,73696.0,-2.55,-12.57,-12.65,0,*5F
1511554109.23,46170,9.88,73692.3,-2.55,-12.65,-12.57,0,*57
1511554110.49,46171,9.88,73694.5,-2.53,-12.65,-12.57,0,*50